Location: Freistadt
(48.5112°N, 14.5013°E)
Time: 05:34:14
(UTC+02:00)

MOZHAYETS 4 - Visible Passes

Search period start: 29 March 2023 00:00
Search period end: 08 April 2023 00:00
Orbit: 658 x 676 km, 98.2° (Epoch: 28 March)

Date Brightness Start Highest point End Pass type
(mag) Time Alt. Az. Time Alt. Az. Time Alt. Az.
29 Mar 9.1 03:14:48 35° NNE 03:14:48 35° NNE 03:17:39 10° N visible
29 Mar 9.7 04:52:56 14° NW 04:52:56 14° NW 04:53:50 10° NW visible
30 Mar 10.3 02:08:37 15° NE 02:08:37 15° NE 02:11:09 10° NNE visible
30 Mar 8.8 03:46:45 37° NNW 03:46:45 37° NNW 03:49:32 10° NNW visible
31 Mar 9.6 02:40:35 26° NE 02:40:35 26° NE 02:43:48 10° N visible
31 Mar 9.0 04:18:43 26° NW 04:18:43 26° NW 04:21:06 10° NNW visible
01 Apr 8.8 03:12:31 43° NNE 03:12:31 43° NNE 03:15:57 10° N visible
01 Apr 9.5 04:50:40 16° WNW 04:50:40 16° WNW 04:52:13 10° NW visible
02 Apr 10.3 02:06:21 15° ENE 02:06:50 15° ENE 02:09:23 10° NNE visible
02 Apr 8.3 03:44:29 49° NNW 03:44:29 49° NNW 03:47:50 10° NNW visible
03 Apr 9.6 02:38:17 26° ENE 02:38:17 26° ENE 02:42:02 10° N visible
03 Apr 8.6 04:16:25 32° WNW 04:16:25 32° WNW 04:19:25 10° NNW visible
04 Apr 8.6 03:10:13 48° NE 03:10:13 48° NE 03:14:13 10° N visible
04 Apr 9.3 04:48:21 19° WNW 04:48:21 19° WNW 04:50:33 10° NW visible
05 Apr 10.3 02:04:02 13° ENE 02:05:08 14° ENE 02:07:34 10° NNE visible
05 Apr 7.8 03:42:09 66° NNW 03:42:09 66° NNW 03:46:06 10° NNW visible
06 Apr 9.6 02:35:58 25° ENE 02:36:31 25° ENE 02:40:15 10° N visible
06 Apr 8.3 04:14:05 39° WNW 04:14:05 39° WNW 04:17:41 10° NNW visible
07 Apr 8.5 03:07:53 47° ENE 03:08:03 47° ENE 03:12:26 10° N visible
07 Apr 9.1 04:46:00 21° W 04:46:00 21° W 04:48:51 10° NW visible
